Hourly Data Report for May 25, 2012

All times are specified in Local Standard Time (LST). Add 1 hour to adjust for Daylight Saving Time where and when it is observed.

CHURCHILL A
MANITOBA

58°44'21.000" N
94°03'59.000" W
29.30 m
5060605
71618
YYQ

Related Data

No related data is available for this station

Download Data

Hourly Data (May 2012)
Hourly Data Report for May 25, 2012
Temp Definition
°C
Dew Point Temp Definition
°C
Rel Hum Definition
%
Wind Dir Definition
10's deg

Wind Spd Definition
km/h
Visibility Definition
km
Stn Press Definition
kPa
Hmdx Definition


Wind Chill Definition


Weather Definition


TIME
00:00 Legend Double Dagger -2.9 -5.1 85 35 36 10.0 101.57   -11 Cloudy
01:00 Legend Double Dagger -3.2 -5.7 83 35 39 10.0 101.57   -12 LegendNANA
02:00 Legend Double Dagger -3.3 -5.5 85 35 32 10.0 101.60   -11 LegendNANA
03:00 Legend Double Dagger -3.5 -5.4 87 35 33 10.0 101.60   -11 Cloudy
04:00 Legend Double Dagger -3.6 -5.9 84 35 39 10.0 101.62   -12 LegendNANA
05:00 Legend Double Dagger -3.8 -6.3 83 35 40 10.0 101.67   -12 LegendNANA
06:00 Legend Double Dagger -3.6 -5.8 85 34 31 10.0 101.71   -11 Cloudy
07:00 Legend Double Dagger -3.3 -5.5 85 34 32 10.0 101.73   -11 LegendNANA
08:00 Legend Double Dagger -3.1 -5.1 86 34 34 10.0 101.75   -11 LegendNANA
09:00 Legend Double Dagger -3.1 -5.1 86 34 38 10.0 101.74   -11 Cloudy
10:00 Legend Double Dagger -3.4 -5.1 88 35 40 10.0 101.78   -12 LegendNANA
11:00 Legend Double Dagger -3.1 -5.3 85 35 39 10.0 101.80   -11 LegendNANA
12:00 Legend Double Dagger -2.7 -5.5 81 35 33 10.0 101.83   -10 Cloudy
13:00 Legend Double Dagger -2.5 -5.5 80 34 28 10.0 101.86   -10 LegendNANA
14:00 Legend Double Dagger -2.5 -5.5 80 34 34 10.0 101.88   -10 LegendNANA
15:00 Legend Double Dagger -2.6 -6.1 77 34 31 10.0 101.94   -10 Cloudy
16:00 Legend Double Dagger -2.5 -6.0 77 35 29 10.0 101.95   -10 LegendNANA
17:00 Legend Double Dagger -2.8 -5.5 82 35 22 10.0 101.96   -9 LegendNANA
18:00 Legend Double Dagger -2.5 -5.0 83 34 18 10.0 101.94   -8 Cloudy
19:00 Legend Double Dagger -2.6 -5.4 81 34 15 10.0 101.97   -8 LegendNANA
20:00 Legend Double Dagger -2.3 -5.6 78 34 13 10.0 101.97   -7 LegendNANA
21:00 Legend Double Dagger -2.2 -5.5 78 26 10 10.0 101.96   -6 Cloudy
22:00 Legend Double Dagger -2.5 -4.8 84 25 11 10.0 101.97   -7 LegendNANA
23:00 Legend Double Dagger -3.5 -5.2 88 24 13 10.0 102.00   -8 LegendNANA

Notes on Data Quality.

Legend

  • E = Estimated
  • M = Missing
  • NA = Not Available
  • ‡ = Partner data that is not subject to review by the National Climate Archives
Date modified: